GW4872 Weather Reports


time (UTC)temp
F
wind
direction
speed
knots
gust
knots
rain 1hr
in
rain 24hr
in
rain mn
in
humidity
%
barometer
mb
20260906180928 92 176 1.7 5.2 0.00 0.00 0.00 61 1015.1
20260906180423 91 177 1.7 7.0 0.00 0.00 0.00 62 1015.5
20260906175921 91 177 0.9 5.2 0.00 0.00 0.00 62 1015.4
20260906175416 89 146 0.9 1.7 0.00 0.00 0.00 65 1015.2
20260906174914 88 198 0.9 2.6 0.00 0.00 0.00 68 1015.6
20260906174414 88 185 0.9 1.7 0.00 0.00 0.00 68 1015.5
20260906173909 88 168 0.0 2.6 0.00 0.00 0.00 71 1015.7
20260906173404 88 180 3.5 7.0 0.00 0.00 0.00 70 1015.7
20260906172903 87 175 1.7 3.5 0.00 0.00 0.00 72 1015.8
20260906172355 88 198 3.5 5.2 0.00 0.00 0.00 71 1015.6
20260906171854 88 175 0.0 0.9 0.00 0.00 0.00 72 1015.8
20260906171349 87 172 0.9 2.6 0.00 0.00 0.00 72 1016.0
20260906170845 86 165 0.9 5.2 0.00 0.00 0.00 74 1016.0
20260906170341 86 166 0.0 1.7 0.00 0.00 0.00 74 1015.9
20260906165837 86 155 0.0 3.5 0.00 0.00 0.00 74 1016.0
20260906165331 86 176 0.0 1.7 0.00 0.00 0.00 74 1016.0
20260906164826 86 167 0.0 0.0 0.00 0.00 0.00 76 1016.2
20260906164325 85 170 0.0 1.7 0.00 0.00 0.00 78 1016.3
20260906163821 84 172 0.0 0.0 0.00 0.00 0.00 81 1016.2
20260906163318 82 159 0.9 3.5 0.00 0.00 0.00 83 1016.3
20260906162815 83 176 1.7 1.7 0.00 0.00 0.00 83 1016.5
20260906162314 82 170 0.0 0.0 0.00 0.00 0.00 83 1016.5
20260906161809 82 171 0.0 0.0 0.00 0.00 0.00 83 1016.5
20260906161308 81 172 0.0 0.0 0.00 0.00 0.00 84 1016.3
20260906160807 81 174 0.0 0.0 0.00 0.00 0.00 85 1016.7
20260906160301 81 174 0.0 0.9 0.00 0.00 0.00 85 1016.6
20260906155759 80 173 0.0 0.0 0.00 0.00 0.00 86 1016.6
20260906155254 80 173 0.0 0.0 0.00 0.00 0.00 86 1016.7
20260906154750 80 168 0.0 0.0 0.00 0.00 0.00 85 1016.6
20260906154244 80 177 0.9 1.7 0.00 0.00 0.00 84 1016.7
20260906153737 80 174 0.0 0.0 0.00 0.00 0.00 82 1016.4
20260906153231 80 174 0.0 2.6 0.00 0.00 0.00 83 1016.6
20260906152726 80 173 0.0 0.9 0.00 0.00 0.00 83 1016.6
20260906152220 81 181 1.7 2.6 0.00 0.00 0.00 83 1016.9
20260906151715 82 187 3.5 5.2 0.00 0.00 0.00 82 1016.8
20260906151211 82 203 4.3 7.0 0.00 0.00 0.00 79 1016.8
20260906150706 82 196 3.5 3.5 0.00 0.00 0.00 79 1016.0
20260906150201 83 169 0.0 0.9 0.00 0.00 0.00 79 1016.2
20260906145700 83 168 0.0 2.6 0.00 0.00 0.00 78 1016.0
20260906145200 83 173 0.0 5.2 0.00 0.00 0.00 78 1015.9
20260906144700 83 171 0.0 0.9 0.00 0.00 0.00 79 1015.7
20260906144154 83 169 0.0 1.7 0.00 0.00 0.00 80 1015.8
20260906143649 82 173 0.0 0.9 0.00 0.00 0.00 80 1015.8
20260906143147 82 170 0.0 0.0 0.00 0.00 0.00 81 1015.7
20260906142646 82 168 1.7 2.6 0.00 0.00 0.00 81 1015.9
20260906142141 82 169 0.0 1.7 0.00 0.00 0.00 81 1015.9
20260906141640 82 172 0.0 1.7 0.00 0.00 0.00 82 1016.2
20260906141135 81 169 0.0 0.9 0.00 0.00 0.00 82 1016.1
20260906140634 81 164 0.0 1.7 0.00 0.00 0.00 83 1016.0
20260906140129 80 127 0.9 2.6 0.00 0.00 0.00 83 1016.1
20260906135626 80 167 0.9 3.5 0.00 0.00 0.00 83 1016.3
20260906135122 80 166 0.0 1.7 0.00 0.00 0.00 84 1016.1
20260906134618 80 169 1.7 2.6 0.00 0.00 0.00 83 1016.1
20260906134113 81 171 0.9 2.6 0.00 0.00 0.00 83 1016.1
20260906133609 81 167 0.0 0.9 0.00 0.00 0.00 82 1016.2
20260906133103 81 178 0.9 2.6 0.00 0.00 0.00 82 1015.9
20260906132558 81 160 0.9 2.6 0.00 0.00 0.00 82 1016.1
20260906132054 82 170 0.0 0.9 0.00 0.00 0.00 81 1016.3
20260906131549 80 175 0.0 0.9 0.00 0.00 0.00 83 1015.8
20260906131044 80 143 1.7 2.6 0.00 0.00 0.00 84 1016.0
20260906130543 80 173 0.0 1.7 0.00 0.00 0.00 85 1016.2
20260906130039 79 163 0.0 0.0 0.00 0.00 0.00 85 1016.2
20260906125536 79 150 0.0 2.6 0.00 0.00 0.00 85 1016.0
20260906125030 79 171 0.0 0.9 0.00 0.00 0.00 86 1015.9
20260906124526 79 171 0.0 1.7 0.00 0.00 0.00 86 1016.0
20260906124021 79 170 0.0 0.0 0.00 0.00 0.00 86 1015.7
20260906123519 79 169 0.0 0.0 0.00 0.00 0.00 86 1015.7
20260906123015 79 170 0.0 0.9 0.00 0.00 0.00 86 1015.7
20260906122509 79 172 0.0 0.0 0.00 0.00 0.00 86 1015.5
20260906122005 79 173 0.0 0.0 0.00 0.00 0.00 86 1015.6
20260906121501 79 174 0.0 0.9 0.00 0.00 0.00 86 1015.6
20260906120957 78 170 0.0 0.0 0.00 0.00 0.00 86 1015.4
20260906120452 78 170 0.0 0.0 0.00 0.00 0.00 86 1015.5
20260906115949 78 171 0.0 0.9 0.00 0.00 0.00 86 1015.5
20260906115444 78 170 0.0 0.9 0.00 0.00 0.00 86 1015.3
20260906114944 78 174 0.0 0.0 0.00 0.00 0.00 86 1015.1
20260906114438 78 165 0.0 3.5 0.00 0.00 0.00 87 1015.1
20260906113935 78 170 0.0 0.0 0.00 0.00 0.00 87 1015.1
20260906113432 78 169 0.0 0.0 0.00 0.00 0.00 86 1014.9
20260906112929 78 173 0.0 0.9 0.00 0.00 0.00 86 1015.1
20260906112424 78 173 0.0 0.9 0.00 0.00 0.00 86 1015.1
20260906111920 79 172 0.0 0.0 0.00 0.00 0.00 85 1015.0
20260906111419 79 170 0.0 0.0 0.00 0.00 0.00 85 1015.2
20260906110914 79 169 0.9 1.7 0.00 0.00 0.00 85 1015.2
20260906110409 79 171 0.0 1.7 0.00 0.00 0.00 85 1015.1
20260906105908 79 168 0.9 0.9 0.00 0.00 0.00 85 1015.2
20260906105404 79 170 0.0 0.0 0.00 0.00 0.00 85 1015.0
20260906104900 79 170 0.0 0.0 0.00 0.00 0.00 85 1015.2
20260906104358 79 173 0.0 0.0 0.00 0.00 0.00 85 1015.2
20260906103857 79 171 0.0 0.0 0.00 0.00 0.00 85 1015.0
20260906103355 79 158 0.0 0.9 0.00 0.00 0.00 85 1015.0
20260906102852 79 176 1.7 1.7 0.00 0.00 0.00 85 1014.9
20260906102351 79 169 0.0 0.0 0.00 0.00 0.00 84 1014.8
20260906101845 79 172 0.0 0.0 0.00 0.00 0.00 85 1014.8
20260906101341 79 171 0.0 0.0 0.00 0.00 0.00 85 1014.7
20260906100837 79 169 0.0 0.9 0.00 0.00 0.00 85 1014.9
20260906100336 78 169 0.0 0.0 0.00 0.00 0.00 85 1014.7
20260906095831 78 172 0.0 0.0 0.00 0.00 0.00 85 1014.7
20260906095326 78 171 0.0 0.9 0.00 0.00 0.00 85 1014.8
20260906094825 78 172 0.0 0.0 0.00 0.00 0.00 85 1014.8
20260906094321 79 171 0.0 0.0 0.00 0.00 0.00 84 1014.8
20260906093817 79 171 0.0 0.0 0.00 0.00 0.00 84 1014.7
20260906093313 79 173 0.0 0.0 0.00 0.00 0.00 84 1014.7
20260906092807 79 171 0.0 0.0 0.00 0.00 0.00 83 1014.8
20260906092301 79 171 0.0 0.0 0.00 0.00 0.00 83 1014.7
20260906091757 80 170 0.0 0.0 0.00 0.00 0.00 82 1015.0
20260906091253 80 172 0.0 0.0 0.00 0.00 0.00 82 1014.8
20260906090749 80 173 0.0 0.0 0.00 0.00 0.00 82 1014.8
20260906090248 80 171 0.0 0.0 0.00 0.00 0.00 81 1014.9
20260906085748 80 165 0.0 1.7 0.00 0.00 0.00 81 1014.8
20260906085247 80 173 0.0 0.9 0.00 0.00 0.00 81 1014.7
20260906084742 80 172 0.0 1.7 0.00 0.00 0.00 81 1014.7
20260906084242 80 173 0.0 0.0 0.00 0.00 0.00 81 1014.9
20260906083737 80 172 0.0 0.9 0.00 0.00 0.00 82 1014.8
20260906083232 80 173 0.0 0.0 0.00 0.00 0.00 81 1014.5
20260906082727 80 172 0.0 0.9 0.00 0.00 0.00 81 1014.6
20260906082222 80 173 0.0 0.9 0.00 0.00 0.00 81 1014.7
20260906081719 80 178 0.0 0.0 0.00 0.00 0.00 81 1014.6
20260906081213 81 173 0.0 0.9 0.00 0.00 0.00 80 1014.6
20260906080710 81 175 0.0 0.0 0.00 0.00 0.00 80 1014.5
20260906080206 81 174 0.0 0.9 0.00 0.00 0.00 80 1014.4
20260906075705 81 177 0.9 1.7 0.00 0.00 0.00 80 1014.4
20260906075200 81 165 0.0 1.7 0.00 0.00 0.00 80 1014.4
20260906074655 81 165 0.9 2.6 0.00 0.00 0.00 80 1014.4
20260906074154 81 182 0.0 0.9 0.00 0.00 0.00 80 1014.5
20260906073650 81 167 0.0 2.6 0.00 0.00 0.00 80 1014.4
20260906073145 81 167 2.6 3.5 0.00 0.00 0.00 80 1014.3
20260906072640 81 168 0.0 3.5 0.00 0.00 0.00 80 1014.5
20260906072136 81 169 0.9 0.9 0.00 0.00 0.00 80 1014.4
20260906071632 81 167 0.0 0.9 0.00 0.00 0.00 80 1014.3
20260906071132 81 172 0.0 2.6 0.00 0.00 0.00 80 1014.5
20260906070629 81 173 0.0 0.9 0.00 0.00 0.00 80 1014.7
20260906070124 81 168 0.0 0.0 0.00 0.00 0.00 80 1014.7
20260906065624 81 171 0.0 1.7 0.00 0.00 0.00 80 1014.7
20260906065119 81 182 0.9 0.9 0.00 0.00 0.00 80 1014.7
20260906064614 81 171 0.0 0.9 0.00 0.00 0.00 80 1014.6
20260906064109 81 173 0.0 0.0 0.00 0.00 0.00 81 1014.6
20260906063605 81 170 0.0 0.0 0.00 0.00 0.00 81 1014.8
20260906063101 81 171 0.0 1.7 0.00 0.00 0.00 81 1014.9
20260906062556 81 172 0.0 0.0 0.00 0.00 0.00 81 1014.8
20260906062055 82 171 0.0 0.0 0.00 0.00 0.00 80 1014.8
20260906061552 82 176 0.0 0.0 0.00 0.00 0.00 80 1015.1
20260906061050 82 173 0.0 1.7 0.00 0.00 0.00 81 1015.0
20260906060547 82 169 0.0 0.0 0.00 0.00 0.00 81 1014.9
20260906060044 82 172 0.0 0.0 0.00 0.00 0.00 81 1014.7
20260906055540 82 185 0.0 0.0 0.00 0.00 0.00 81 1015.0
20260906055035 82 169 0.0 0.0 0.00 0.00 0.00 81 1014.9
20260906054535 82 170 0.0 0.0 0.00 0.00 0.00 80 1015.0
20260906054030 82 179 0.0 1.7 0.00 0.00 0.00 80 1015.0
20260906053527 82 165 0.0 3.5 0.00 0.00 0.00 80 1014.8
20260906053022 83 163 0.0 3.5 0.00 0.00 0.00 79 1015.0
20260906052518 83 193 0.0 3.5 0.00 0.00 0.00 79 1014.7
20260906052015 83 173 0.9 1.7 0.00 0.00 0.00 79 1014.9
20260906051510 83 171 0.0 0.0 0.00 0.00 0.00 78 1014.8
20260906051005 83 180 0.9 1.7 0.00 0.00 0.00 78 1014.8
20260906050500 83 171 0.0 2.6 0.00 0.00 0.00 77 1014.9
20260906045959 83 156 0.9 1.7 0.00 0.00 0.00 77 1014.8
20260906045458 84 176 0.0 0.9 0.00 0.00 0.00 77 1015.1
20260906044954 84 168 0.0 0.0 0.00 0.00 0.00 76 1015.0
20260906044449 84 177 0.0 0.9 0.00 0.00 0.00 76 1014.9
20260906043945 84 172 0.0 0.0 0.00 0.00 0.00 76 1014.9
20260906043441 84 170 0.0 1.7 0.00 0.00 0.00 75 1014.8
20260906042936 84 162 0.0 0.0 0.00 0.00 0.00 75 1015.1
20260906042435 84 173 0.0 0.0 0.00 0.00 0.00 75 1014.9
20260906041930 84 173 0.0 0.0 0.00 0.00 0.00 75 1014.9
20260906041427 84 171 0.0 0.0 0.00 0.00 0.00 75 1015.0
20260906040926 85 163 0.0 0.0 0.00 0.00 0.00 74 1014.9
20260906040421 85 173 0.0 0.0 0.00 0.00 0.00 74 1014.9
20260906035911 85 174 0.0 0.0 0.00 0.00 0.00 74 1015.0
20260906035406 85 174 0.0 0.0 0.00 0.00 0.00 73 1014.9
20260906034901 85 169 0.0 0.0 0.00 0.00 0.00 73 1014.8
20260906034356 85 171 0.0 0.0 0.00 0.00 0.00 73 1014.9
20260906033852 85 171 0.0 0.0 0.00 0.00 0.00 73 1014.9
20260906033351 86 163 0.0 0.0 0.00 0.00 0.00 73 1015.0
20260906032848 86 164 0.0 0.0 0.00 0.00 0.00 73 1014.6
20260906032343 86 168 0.0 0.0 0.00 0.00 0.00 73 1014.6
20260906031838 86 167 0.0 0.0 0.00 0.00 0.00 73 1014.7
20260906031334 86 170 0.0 0.0 0.00 0.00 0.00 73 1014.6
20260906030833 86 172 0.0 0.0 0.00 0.00 0.00 73 1014.7
20260906030329 86 174 0.0 0.0 0.00 0.00 0.00 73 1014.4
20260906025828 87 165 0.0 0.0 0.00 0.00 0.00 73 1014.3
20260906025322 87 173 0.0 0.9 0.00 0.00 0.00 73 1014.1
20260906024821 87 173 0.0 0.0 0.00 0.00 0.00 72 1013.9
20260906024315 87 165 0.0 0.0 0.00 0.00 0.00 72 1013.9
20260906023812 87 174 0.0 0.0 0.00 0.00 0.00 72 1013.7
20260906023307 87 183 0.0 0.0 0.00 0.00 0.00 72 1013.9
20260906022803 87 173 0.0 0.0 0.00 0.00 0.00 72 1014.1
20260906022257 87 174 0.0 0.0 0.00 0.00 0.00 72 1013.9
20260906021753 87 173 0.0 0.0 0.00 0.00 0.00 71 1013.7
20260906021252 87 160 0.0 0.0 0.00 0.00 0.00 71 1013.5
20260906020746 87 170 0.0 0.0 0.00 0.00 0.00 71 1013.6
20260906020246 88 177 0.9 1.7 0.00 0.00 0.00 71 1013.5
20260906015741 88 171 0.0 1.7 0.00 0.00 0.00 71 1013.2
20260906015239 88 169 0.0 0.9 0.00 0.00 0.00 71 1013.1
20260906014734 88 165 0.0 1.7 0.00 0.00 0.00 71 1013.2
20260906014224 88 170 0.0 0.0 0.00 0.00 0.00 71 1013.2
20260906013720 88 171 0.0 1.7 0.00 0.00 0.00 71 1012.9
20260906013220 88 170 0.0 0.0 0.00 0.00 0.00 71 1013.1
20260906012715 88 169 0.0 0.9 0.00 0.00 0.00 70 1012.9
20260906012210 88 170 0.0 0.0 0.00 0.00 0.00 69 1013.1
20260906011705 89 169 0.0 0.9 0.00 0.00 0.00 69 1013.1
20260906011200 89 171 0.0 0.0 0.00 0.00 0.00 69 1013.0
20260906010655 89 169 0.0 1.7 0.00 0.00 0.00 69 1012.8
20260906010152 89 171 0.0 0.0 0.00 0.00 0.00 68 1012.7
20260906005651 89 171 0.0 0.9 0.00 0.00 0.00 68 1012.7
20260906005151 89 170 0.0 1.7 0.00 0.00 0.00 68 1013.0
20260906004649 90 170 0.0 0.0 0.00 0.00 0.00 68 1012.7
20260906004144 90 170 0.0 0.0 0.00 0.00 0.00 67 1012.8
20260906003640 90 178 1.7 2.6 0.00 0.00 0.00 66 1012.9
20260906003136 91 172 0.0 0.0 0.00 0.00 0.00 66 1012.7
20260906002630 91 185 0.0 0.9 0.00 0.00 0.00 66 1012.8
20260906002125 91 165 0.0 2.6 0.00 0.00 0.00 65 1012.4
20260906001621 92 173 0.0 1.7 0.00 0.00 0.00 64 1012.4
20260906001120 92 165 0.9 1.7 0.00 0.00 0.00 63 1012.4
20260906000616 93 171 0.0 0.9 0.00 0.00 0.00 63 1012.4
20260906000112 93 172 0.0 1.7 0.00 0.00 0.00 62 1012.4
20260905235610 94 166 0.0 0.0 0.00 0.00 0.00 61 1012.4
20260905235106 94 168 0.0 1.7 0.00 0.00 0.00 61 1012.5
20260905234601 94 172 0.0 1.7 0.00 0.00 0.00 60 1012.6
20260905234056 95 159 0.9 5.2 0.00 0.00 0.00 60 1012.7
20260905233555 95 165 0.0 0.9 0.00 0.00 0.00 59 1012.6
20260905233051 95 170 0.0 1.7 0.00 0.00 0.00 58 1012.4
20260905232546 95 176 0.0 1.7 0.00 0.00 0.00 58 1012.5
20260905232041 96 178 0.0 2.6 0.00 0.00 0.00 58 1012.3
20260905231537 96 167 0.0 0.0 0.00 0.00 0.00 57 1012.4
20260905231033 96 174 0.9 1.7 0.00 0.00 0.00 57 1012.5
20260905230532 96 169 0.0 1.7 0.00 0.00 0.00 56 1012.4
20260905230030 96 165 0.9 1.7 0.00 0.00 0.00 57 1012.3
20260905225525 96 195 0.0 0.9 0.00 0.00 0.00 56 1012.6
20260905225020 96 169 0.0 0.0 0.00 0.00 0.00 57 1012.5
20260905224515 96 174 0.9 1.7 0.00 0.00 0.00 57 1012.5
20260905224015 96 129 1.7 3.5 0.00 0.00 0.00 56 1012.4
20260905223512 96 165 1.7 2.6 0.00 0.00 0.00 56 1012.4
20260905223008 96 172 0.0 2.6 0.00 0.00 0.00 56 1012.3
20260905222507 96 170 0.0 1.7 0.00 0.00 0.00 56 1012.2
20260905222002 96 172 0.0 2.6 0.00 0.00 0.00 56 1012.1
20260905221459 95 165 0.9 2.6 0.00 0.00 0.00 56 1012.2
20260905220955 95 210 3.5 7.8 0.00 0.00 0.00 55 1012.1
20260905220451 95 165 1.7 2.6 0.00 0.00 0.00 56 1012.1
20260905215949 95 183 0.9 2.6 0.00 0.00 0.00 55 1011.9
20260905215446 96 172 2.6 3.5 0.00 0.00 0.00 55 1012.0
20260905214942 96 163 0.9 2.6 0.00 0.00 0.00 54 1012.3
20260905214437 96 154 0.9 1.7 0.00 0.00 0.00 54 1012.4
20260905213937 97 163 1.7 3.5 0.00 0.00 0.00 53 1012.3
20260905213434 96 169 0.9 1.7 0.00 0.00 0.00 53 1012.4
20260905212928 96 150 1.7 2.6 0.00 0.00 0.00 53 1012.4
20260905212423 95 168 0.9 2.6 0.00 0.00 0.00 54 1012.4
20260905211922 95 166 0.9 3.5 0.00 0.00 0.00 54 1012.6
20260905211418 95 153 0.0 2.6 0.00 0.00 0.00 54 1012.6
20260905210915 95 168 0.0 5.2 0.00 0.00 0.00 54 1012.8
20260905210415 96 165 2.6 6.1 0.00 0.00 0.00 53 1012.8
20260905205914 97 89 2.6 3.5 0.00 0.00 0.00 52 1013.0
20260905205409 97 161 0.0 2.6 0.00 0.00 0.00 51 1013.1
20260905204908 97 172 0.0 2.6 0.00 0.00 0.00 52 1013.1
20260905204404 96 154 0.9 2.6 0.00 0.00 0.00 52 1013.3
20260905203903 96 170 0.9 2.6 0.00 0.00 0.00 52 1013.5
20260905203358 96 185 1.7 2.6 0.00 0.00 0.00 51 1013.7
20260905202854 96 144 1.7 3.5 0.00 0.00 0.00 51 1013.8
20260905202349 97 140 0.9 1.7 0.00 0.00 0.00 50 1013.8
20260905201845 97 161 0.0 7.0 0.00 0.00 0.00 50 1013.9
20260905201340 98 172 0.0 0.9 0.00 0.00 0.00 49 1013.8
20260905200839 97 161 0.0 0.9 0.00 0.00 0.00 51 1014.1
20260905200336 96 174 0.0 2.6 0.00 0.00 0.00 53 1014.3
20260905195833 95 177 0.0 2.6 0.00 0.00 0.00 53 1014.6
20260905195328 94 171 0.0 1.7 0.00 0.00 0.00 54 1014.6
20260905194825 96 79 1.7 7.8 0.00 0.00 0.00 52 1014.7
20260905194319 96 174 0.9 1.7 0.00 0.00 0.00 52 1014.9
20260905193818 96 167 0.0 1.7 0.00 0.00 0.00 52 1014.7
20260905193313 96 175 0.0 0.9 0.00 0.00 0.00 52 1014.6
20260905192809 96 169 0.0 0.9 0.00 0.00 0.00 52 1014.9
20260905192306 96 169 0.0 2.6 0.00 0.00 0.00 52 1014.9
20260905191804 94 176 0.0 0.9 0.00 0.00 0.00 54 1014.9
20260905191303 93 153 1.7 3.5 0.00 0.00 0.00 59 1014.9
20260905190801 94 128 4.3 6.1 0.00 0.00 0.00 58 1015.2
20260905190300 94 184 1.7 2.6 0.00 0.00 0.00 58 1015.2
20260905185759 93 172 0.0 2.6 0.00 0.00 0.00 59 1015.3
20260905185255 91 172 0.9 2.6 0.00 0.00 0.00 60 1015.5
20260905184753 91 176 5.2 7.0 0.00 0.00 0.00 61 1015.6
20260905184248 91 163 6.1 7.8 0.00 0.00 0.00 61 1015.9
20260905183746 91 135 4.3 11.3 0.00 0.00 0.00 60 1015.9
20260905183242 93 63 3.5 7.0 0.00 0.00 0.00 57 1016.2
20260905182736 92 196 1.7 3.5 0.00 0.00 0.00 59 1016.1
20260905182236 92 160 0.9 3.5 0.00 0.00 0.00 61 1016.0
20260905181731 89 151 2.6 7.0 0.00 0.00 0.00 64 1016.0